Year,Month,Day,Hour,Minute,Value (Times are PST for temperature in C)
2008,06,27,00,00,12.10
2008,06,27,00,01,12.00
2008,06,27,00,02,12.00
2008,06,27,00,03,12.00
2008,06,27,00,04,11.90
2008,06,27,00,05,11.90
2008,06,27,00,06,11.80
2008,06,27,00,07,11.80
2008,06,27,00,08,11.80
2008,06,27,00,09,11.80
2008,06,27,00,10,11.80
2008,06,27,00,11,11.80
2008,06,27,00,12,11.80
2008,06,27,00,13,11.70
2008,06,27,00,14,11.70
2008,06,27,00,15,11.70
2008,06,27,00,16,11.70
2008,06,27,18,02,22.20
2008,06,27,18,03,22.10
2008,06,27,18,04,22.20
2008,06,27,18,05,22.20
2008,06,27,18,06,22.20
2008,06,27,18,07,22.20
2008,06,27,18,08,22.30
2008,06,27,18,09,22.30
2008,06,27,18,10,22.20
2008,06,27,18,11,22.10
2008,06,27,18,12,22.00
2008,06,27,18,13,22.00
2008,06,27,18,14,22.00
2008,06,27,18,15,22.10
2008,06,27,18,16,22.30
2008,06,27,18,17,22.30
2008,06,27,18,18,22.30
2008,06,27,18,19,22.20
2008,06,27,18,20,22.20
2008,06,27,18,21,22.10
2008,06,27,18,22,22.10
2008,06,27,18,23,22.10
2008,06,27,18,24,22.10
2008,06,27,18,25,22.00
2008,06,27,18,26,22.00
2008,06,27,18,27,22.00
2008,06,27,18,28,22.00
2008,06,27,18,29,22.00
2008,06,27,18,30,22.10
2008,06,27,18,31,22.20
2008,06,27,18,32,22.30
2008,06,27,18,33,22.40
2008,06,27,18,34,22.50
2008,06,27,18,35,22.60
2008,06,27,18,36,22.70
2008,06,27,18,37,22.70
2008,06,27,18,38,22.80
2008,06,27,18,39,22.70
2008,06,27,18,40,22.70
2008,06,27,18,41,22.60
2008,06,27,18,42,22.50
2008,06,27,18,43,22.40
2008,06,27,18,44,22.30
2008,06,27,18,45,22.20
2008,06,27,18,46,22.20
2008,06,27,18,47,22.20
2008,06,27,18,48,22.20
2008,06,27,18,49,22.20
2008,06,27,18,50,22.10
2008,06,27,18,51,22.10
2008,06,27,18,52,22.10
2008,06,27,18,53,22.10
2008,06,27,18,54,22.10
2008,06,27,18,55,22.10
2008,06,27,18,56,22.10
2008,06,27,18,57,22.10
2008,06,27,18,58,22.00
2008,06,27,18,59,22.00
2008,06,27,19,00,22.00
2008,06,27,19,01,22.00
2008,06,27,19,02,22.00
2008,06,27,19,03,22.10
2008,06,27,19,04,22.10
2008,06,27,19,05,22.10
2008,06,27,19,06,22.20
2008,06,27,19,07,22.30
2008,06,27,19,08,22.40
2008,06,27,19,09,22.40
2008,06,27,19,10,22.40
2008,06,27,19,11,22.50
2008,06,27,19,12,22.50
2008,06,27,19,13,22.60
2008,06,27,19,14,22.50
2008,06,27,19,15,22.50
2008,06,27,19,16,22.50
2008,06,27,19,17,22.50
2008,06,27,19,18,22.50
2008,06,27,19,19,22.50
2008,06,27,19,20,22.60
2008,06,27,19,21,22.60
2008,06,27,19,22,22.60
2008,06,27,19,23,22.60
2008,06,27,19,24,22.70
2008,06,27,19,25,22.70
2008,06,27,19,26,22.80
2008,06,27,19,27,22.80
2008,06,27,19,28,22.80
2008,06,27,19,29,22.80
2008,06,27,19,30,22.80
2008,06,27,19,31,22.70
2008,06,27,19,32,22.70
2008,06,27,19,33,22.70
2008,06,27,19,34,22.70
2008,06,27,19,35,22.70
2008,06,27,19,36,22.70
2008,06,27,19,37,22.70
2008,06,27,19,38,22.80
2008,06,27,19,39,22.80
2008,06,27,19,40,22.80
2008,06,27,19,41,22.70
2008,06,27,19,42,22.70
2008,06,27,19,43,22.70
2008,06,27,19,44,22.60
2008,06,27,19,45,22.60
2008,06,27,19,46,22.60
2008,06,27,19,47,22.50
2008,06,27,19,48,22.50
2008,06,27,19,49,22.50
2008,06,27,19,50,22.60
2008,06,27,19,51,22.60
2008,06,27,19,52,22.60
2008,06,27,19,53,22.70
2008,06,27,19,54,22.70
2008,06,27,19,55,22.70
2008,06,27,19,56,22.70
2008,06,27,19,57,22.70
2008,06,27,19,58,22.70
2008,06,27,19,59,22.70
2008,06,27,20,00,22.70
2008,06,27,20,01,22.80
2008,06,27,20,02,22.80
2008,06,27,20,03,22.70
2008,06,27,20,04,22.70
2008,06,27,20,05,22.60
2008,06,27,20,06,22.60
2008,06,27,20,07,22.50
2008,06,27,20,08,22.40
2008,06,27,20,09,22.30
2008,06,27,20,10,22.30
2008,06,27,20,11,22.30
2008,06,27,20,12,22.20
2008,06,27,20,13,22.20
2008,06,27,20,14,22.10
2008,06,27,20,15,22.10
2008,06,27,20,16,22.00
2008,06,27,20,17,22.00
2008,06,27,20,18,22.00
2008,06,27,20,19,22.00
2008,06,27,20,20,21.90
2008,06,27,20,21,21.90
2008,06,27,20,22,21.90
2008,06,27,20,23,21.80
2008,06,27,20,24,21.80
2008,06,27,20,25,21.80
2008,06,27,20,26,21.80
2008,06,27,20,27,21.80
2008,06,27,20,28,21.80
2008,06,27,20,29,21.80
2008,06,27,20,30,21.80
2008,06,27,20,31,21.70
2008,06,27,20,32,21.70
2008,06,27,20,33,21.70
2008,06,27,20,34,21.60
2008,06,27,20,35,21.60
2008,06,27,20,36,21.60
2008,06,27,20,37,21.60
2008,06,27,20,38,21.60
2008,06,27,20,39,21.60
2008,06,27,20,40,21.60
2008,06,27,20,41,21.60
2008,06,27,20,42,21.50
2008,06,27,20,43,21.40
2008,06,27,20,44,21.40
2008,06,27,20,45,21.40
2008,06,27,20,46,21.30
2008,06,27,20,47,21.30
2008,06,27,20,48,21.30
2008,06,27,20,49,21.30
2008,06,27,20,50,21.30
2008,06,27,20,51,21.30
2008,06,27,20,52,21.30
2008,06,27,20,53,21.20
2008,06,27,20,54,21.20
2008,06,27,20,55,21.20
2008,06,27,20,56,21.10
2008,06,27,20,57,21.10
2008,06,27,20,58,21.10
2008,06,27,20,59,21.00
2008,06,27,21,00,21.00
2008,06,27,21,01,21.00
2008,06,27,21,02,20.90
2008,06,27,21,03,20.80
2008,06,27,21,04,20.80
2008,06,27,21,05,20.70
2008,06,27,21,06,20.70
2008,06,27,21,07,20.60
2008,06,27,21,08,20.60
2008,06,27,21,09,20.50
2008,06,27,21,10,20.50
2008,06,27,21,11,20.50
2008,06,27,21,12,20.40
2008,06,27,21,13,20.40
2008,06,27,21,14,20.30
2008,06,27,21,15,20.30
2008,06,27,21,16,20.30
2008,06,27,21,17,20.20
2008,06,27,21,18,20.20
2008,06,27,21,19,20.20
2008,06,27,21,20,20.20
2008,06,27,21,21,20.20
2008,06,27,21,22,20.10
2008,06,27,21,23,20.10
2008,06,27,21,24,20.00
2008,06,27,21,25,19.90
2008,06,27,21,26,19.90
2008,06,27,21,27,19.90
2008,06,27,21,28,19.90
2008,06,27,21,29,19.80
2008,06,27,21,30,19.80
2008,06,27,21,31,19.70
2008,06,27,21,32,19.70
2008,06,27,21,33,19.70
2008,06,27,21,34,19.60
2008,06,27,21,35,19.60
2008,06,27,21,36,19.50
2008,06,27,21,37,19.50
2008,06,27,21,38,19.50
2008,06,27,21,39,19.40
2008,06,27,21,40,19.40
2008,06,27,21,41,19.30
2008,06,27,21,42,19.30
2008,06,27,21,43,19.30
2008,06,27,21,44,19.20
2008,06,27,21,45,19.20
2008,06,27,21,46,19.10
2008,06,27,21,47,19.10
2008,06,27,21,48,19.10
2008,06,27,21,49,19.10
2008,06,27,21,50,19.10
2008,06,27,21,51,19.00
2008,06,27,21,52,18.90
2008,06,27,21,53,18.90
2008,06,27,21,54,18.90
2008,06,27,21,55,18.90
2008,06,27,21,56,18.90
2008,06,27,21,57,18.90
2008,06,27,21,58,18.80
2008,06,27,21,59,18.80
2008,06,27,22,00,18.80
2008,06,27,22,01,18.70
2008,06,27,22,02,18.70
2008,06,27,22,03,18.70
2008,06,27,22,04,18.70
2008,06,27,22,05,18.60
2008,06,27,22,06,18.60
2008,06,27,22,07,18.60
2008,06,27,22,08,18.50
2008,06,27,22,09,18.50
2008,06,27,22,10,18.50
2008,06,27,22,11,18.40
2008,06,27,22,12,18.40
2008,06,27,22,13,18.40
2008,06,27,22,14,18.30
2008,06,27,22,15,18.30
2008,06,27,22,16,18.30
2008,06,27,22,17,18.30
2008,06,27,22,18,18.20
2008,06,27,22,19,18.20
2008,06,27,22,20,18.20
2008,06,27,22,21,18.20
2008,06,27,22,22,18.20
2008,06,27,22,23,18.20
2008,06,27,22,24,18.20
2008,06,27,22,25,18.20
2008,06,27,22,26,18.20
2008,06,27,22,27,18.10
2008,06,27,22,28,18.10
2008,06,27,22,29,18.10
2008,06,27,22,30,18.10
2008,06,27,22,31,18.00
2008,06,27,22,32,17.90
2008,06,27,22,33,17.90
2008,06,27,22,34,17.90
2008,06,27,22,35,17.90
2008,06,27,22,36,17.90
2008,06,27,22,37,17.90
2008,06,27,22,38,17.90
2008,06,27,22,39,17.80
2008,06,27,22,40,17.80
2008,06,27,22,41,17.80
2008,06,27,22,42,17.80
2008,06,27,22,43,17.80
2008,06,27,22,44,17.80
2008,06,27,22,45,17.70
2008,06,27,22,46,17.70
2008,06,27,22,47,17.70
2008,06,27,22,48,17.60
2008,06,27,22,49,17.60
2008,06,27,22,50,17.60
2008,06,27,22,51,17.60
2008,06,27,22,52,17.50
2008,06,27,22,53,17.50
2008,06,27,22,54,17.50
2008,06,27,22,55,17.50
2008,06,27,22,56,17.40
2008,06,27,22,57,17.40
2008,06,27,22,58,17.40
2008,06,27,22,59,17.40
2008,06,27,23,00,17.30
2008,06,27,23,01,17.30
2008,06,27,23,02,17.30
2008,06,27,23,03,17.30
2008,06,27,23,04,17.30
2008,06,27,23,05,17.30
2008,06,27,23,06,17.30
2008,06,27,23,07,17.20
2008,06,27,23,08,17.20
2008,06,27,23,09,17.20
2008,06,27,23,10,17.20
2008,06,27,23,11,17.10
2008,06,27,23,12,17.10
2008,06,27,23,13,17.10
2008,06,27,23,14,17.10
2008,06,27,23,15,17.00
2008,06,27,23,16,17.00
2008,06,27,23,17,17.00
2008,06,27,23,18,17.00
2008,06,27,23,19,16.90
2008,06,27,23,20,16.90
2008,06,27,23,21,16.90
2008,06,27,23,22,16.90
2008,06,27,23,23,16.90
2008,06,27,23,24,16.80
2008,06,27,23,25,16.80
2008,06,27,23,26,16.80
2008,06,27,23,27,16.80
2008,06,27,23,28,16.70
2008,06,27,23,29,16.70
2008,06,27,23,30,16.70
2008,06,27,23,31,16.70
2008,06,27,23,32,16.70
2008,06,27,23,33,16.70
2008,06,27,23,34,16.70
2008,06,27,23,35,16.70
2008,06,27,23,36,16.60
2008,06,27,23,37,16.60
2008,06,27,23,38,16.60
2008,06,27,23,39,16.60
2008,06,27,23,40,16.50
2008,06,27,23,41,16.40
2008,06,27,23,42,16.40
2008,06,27,23,43,16.40
2008,06,27,23,44,16.40
2008,06,27,23,45,16.40
2008,06,27,23,46,16.40
2008,06,27,23,47,16.40
2008,06,27,23,48,16.40
2008,06,27,23,49,16.30
2008,06,27,23,50,16.30
2008,06,27,23,51,16.30
2008,06,27,23,52,16.30
2008,06,27,23,53,16.30
2008,06,27,23,54,16.20
2008,06,27,23,55,16.20
2008,06,27,23,56,16.20
2008,06,27,23,57,16.20
2008,06,27,23,58,16.20
2008,06,27,23,59,16.20
